TimeEST,TemperatureF,Dew PointF,Humidity,Sea Level PressureIn,VisibilityMPH,Wind Direction,Wind SpeedMPH,Gust SpeedMPH,PrecipitationIn,Events,Conditions,WindDirDegrees,DateUTC
12:00 AM,82.4,71.6,70,29.95,6.2,NNE,6.9,-,N/A,,Partly Cloudy,20,2013-03-23 05:00:00
1:00 AM,77,72,80,29.96,9,North,5.8,,,,Haze,10,2013-03-23 06:00:00
1:00 AM,77.0,71.6,83,29.95,6.2,North,5.8,-,N/A,,Partly Cloudy,10,2013-03-23 06:00:00
2:00 AM,77.0,71.6,83,29.95,6.2,North,11.5,-,N/A,,Partly Cloudy,10,2013-03-23 07:00:00
3:00 AM,77.0,71.6,83,29.92,6.2,North,9.2,-,N/A,,Partly Cloudy,10,2013-03-23 08:00:00
4:00 AM,78,69,67,29.94,9,North,6.9,,,,Haze,0,2013-03-23 09:00:00
4:00 AM,78.8,69.8,74,29.92,6.2,North,6.9,-,N/A,,Partly Cloudy,360,2013-03-23 09:00:00
5:00 AM,78.8,68.0,69,29.92,6.2,North,6.9,-,N/A,,Partly Cloudy,360,2013-03-23 10:00:00
6:00 AM,77.0,69.8,78,29.95,6.2,NNE,5.8,-,N/A,,Partly Cloudy,20,2013-03-23 11:00:00
7:00 AM,77,73,83,29.99,9,North,5.8,,,,Haze,0,2013-03-23 12:00:00
7:00 AM,77.0,73.4,89,29.98,6.2,NNE,5.8,-,N/A,,Partly Cloudy,20,2013-03-23 12:00:00
8:00 AM,80.6,71.6,74,29.98,6.2,NNW,6.9,-,N/A,,Partly Cloudy,330,2013-03-23 13:00:00
9:00 AM,82.4,73.4,74,30.01,6.2,NW,5.8,-,N/A,,Partly Cloudy,320,2013-03-23 14:00:00
10:00 AM,84,72,61,30.01,16,South,5.8,,,,Haze,190,2013-03-23 15:00:00
10:00 AM,84.2,73.4,70,30.01,6.2,South,5.8,-,N/A,,Partly Cloudy,190,2013-03-23 15:00:00
11:00 AM,86.0,73.4,66,29.98,6.2,SE,23.0,-,N/A,,Partly Cloudy,140,2013-03-23 16:00:00
12:00 PM,86.0,73.4,66,29.95,6.2,SSE,24.2,-,N/A,,Partly Cloudy,150,2013-03-23 17:00:00
1:00 PM,86,76,64,29.91,17,SSE,25.3,,,,Haze,150,2013-03-23 18:00:00
1:00 PM,86.0,75.2,70,29.89,6.2,SSE,25.3,-,N/A,,Partly Cloudy,150,2013-03-23 18:00:00
2:00 PM,86.0,75.2,70,29.89,6.2,SSE,25.3,-,N/A,,Partly Cloudy,150,2013-03-23 19:00:00
3:00 PM,84.2,73.4,70,29.86,6.2,SSE,26.5,-,N/A,,Partly Cloudy,150,2013-03-23 20:00:00
4:00 PM,85,74,63,29.86,17,SE,25.3,,,,Haze,140,2013-03-23 21:00:00
4:00 PM,84.2,73.4,70,29.86,6.2,SE,25.3,-,N/A,,Partly Cloudy,140,2013-03-23 21:00:00
5:00 PM,84.2,73.4,70,29.86,6.2,SE,23.0,-,N/A,,Partly Cloudy,140,2013-03-23 22:00:00
6:00 PM,82.4,73.4,74,29.89,6.2,SE,20.7,-,N/A,,Partly Cloudy,140,2013-03-23 23:00:00
7:00 PM,82,76,76,29.90,12,SE,21.9,,,,Haze,140,2013-03-24 00:00:00
7:00 PM,82.4,75.2,79,29.89,6.2,SE,21.9,-,N/A,,Partly Cloudy,140,2013-03-24 00:00:00
8:00 PM,80.6,71.6,74,29.92,6.2,ESE,17.3,-,N/A,,Partly Cloudy,120,2013-03-24 01:00:00
9:00 PM,80.6,73.4,79,29.92,6.2,SE,15.0,-,N/A,,Partly Cloudy,130,2013-03-24 02:00:00
10:00 PM,80,72,70,29.94,12,SE,18.4,,,,Scattered Clouds,130,2013-03-24 03:00:00
10:00 PM,80.6,71.6,74,29.92,6.2,SE,18.4,-,N/A,,Partly Cloudy,130,2013-03-24 03:00:00
11:00 PM,80.6,73.4,79,29.92,6.2,SE,16.1,-,N/A,,Partly Cloudy,130,2013-03-24 04:00:00